| time (UTC) | temp F | wind direction | speed knots | gust knots | rain 1hr in | rain 24hr in | rain mn in | humidity % | barometer mb |
| 20260505165543 | 68 | 9 | 0.0 | 0.9 | 0.00 | 0.00 | 0.00 | 46 | 1007.8 |
| 20260505164527 | 68 | 29 | 1.7 | 2.6 | 0.00 | 0.00 | 0.00 | 45 | 1007.8 |
| 20260505163519 | 68 | 5 | 3.5 | 4.3 | 0.00 | 0.00 | 0.00 | 45 | 1007.8 |
| 20260505162548 | 68 | 67 | 1.7 | 2.6 | 0.00 | 0.00 | 0.00 | 44 | 1007.8 |
| 20260505161016 | 69 | 27 | 3.5 | 7.0 | 0.00 | 0.00 | 0.00 | 44 | 1007.8 |
| 20260505160112 | 69 | 48 | 4.3 | 6.1 | 0.00 | 0.00 | 0.00 | 44 | 1007.8 |
| 20260505153016 | 69 | 43 | 2.6 | 4.3 | 0.00 | 0.00 | 0.00 | 44 | 1007.8 |
| 20260505152054 | 69 | 34 | 1.7 | 2.6 | 0.00 | 0.00 | 0.00 | 44 | 1007.8 |
| 20260505151028 | 69 | 42 | 3.5 | 5.2 | 0.00 | 0.00 | 0.00 | 43 | 1008.2 |
| 20260505140540 | 73 | 347 | 1.7 | 3.5 | 0.00 | 0.00 | 0.00 | 41 | 1008.9 |
| 20260505124602 | 75 | 41 | 3.5 | 5.2 | 0.00 | 0.00 | 0.00 | 38 | 1008.9 |
| 20260505123550 | 76 | 44 | 1.7 | 2.6 | 0.00 | 0.00 | 0.00 | 38 | 1008.9 |
| 20260505122534 | 77 | 339 | 1.7 | 2.6 | 0.00 | 0.00 | 0.00 | 37 | 1008.9 |
| 20260505121540 | 78 | 28 | 3.5 | 4.3 | 0.00 | 0.00 | 0.00 | 37 | 1008.9 |
| 20260505120556 | 78 | 52 | 3.5 | 4.3 | 0.00 | 0.00 | 0.00 | 37 | 1008.9 |
| 20260505115725 | 78 | 19 | 3.5 | 4.3 | 0.00 | 0.00 | 0.00 | 37 | 1008.9 |
| 20260505114531 | 77 | 347 | 1.7 | 2.6 | 0.00 | 0.00 | 0.00 | 37 | 1008.9 |
| 20260505113538 | 77 | 47 | 3.5 | 4.3 | 0.00 | 0.00 | 0.00 | 38 | 1008.9 |
| 20260505112522 | 77 | 45 | 3.5 | 5.2 | 0.00 | 0.00 | 0.00 | 39 | 1008.9 |
| 20260505111559 | 78 | 345 | 3.5 | 6.1 | 0.00 | 0.00 | 0.00 | 38 | 1008.9 |
| 20260505110533 | 77 | 341 | 1.7 | 2.6 | 0.00 | 0.00 | 0.00 | 39 | 1009.9 |
| 20260505101546 | 75 | 263 | 1.7 | 2.6 | 0.00 | 0.00 | 0.00 | 41 | 1009.9 |
| 20260505100546 | 75 | 288 | 2.6 | 5.2 | 0.00 | 0.00 | 0.00 | 41 | 1009.9 |
| 20260505095546 | 72 | 93 | 0.9 | 0.9 | 0.00 | 0.00 | 0.00 | 43 | 1009.9 |
| 20260505094524 | 73 | 241 | 3.5 | 5.2 | 0.00 | 0.00 | 0.00 | 42 | 1009.9 |
| 20260505093523 | 72 | 276 | 2.6 | 3.5 | 0.00 | 0.00 | 0.00 | 43 | 1009.9 |
| 20260505092554 | 71 | 327 | 1.7 | 2.6 | 0.00 | 0.00 | 0.00 | 45 | 1009.9 |
| 20260505091518 | 70 | 258 | 2.6 | 3.5 | 0.00 | 0.00 | 0.00 | 45 | 1009.9 |
| 20260505090533 | 72 | 280 | 1.7 | 2.6 | 0.00 | 0.00 | 0.00 | 46 | 1009.9 |
| 20260505085543 | 70 | 206 | 2.6 | 3.5 | 0.00 | 0.00 | 0.00 | 46 | 1009.9 |
| 20260505084526 | 71 | 237 | 1.7 | 2.6 | 0.00 | 0.00 | 0.00 | 46 | 1009.9 |
| 20260505083546 | 71 | 252 | 2.6 | 4.3 | 0.00 | 0.00 | 0.00 | 47 | 1009.9 |
| 20260505082554 | 70 | 298 | 1.7 | 1.7 | 0.00 | 0.00 | 0.00 | 47 | 1009.9 |
| 20260505081518 | 70 | 252 | 2.6 | 3.5 | 0.00 | 0.00 | 0.00 | 48 | 1009.9 |
| 20260505080548 | 70 | 261 | 1.7 | 2.6 | 0.00 | 0.00 | 0.00 | 51 | 1009.9 |
| 20260505075548 | 68 | 283 | 2.6 | 2.6 | 0.00 | 0.00 | 0.00 | 53 | 1009.9 |
| 20260505074516 | 67 | 316 | 1.7 | 2.6 | 0.00 | 0.00 | 0.00 | 56 | 1009.9 |
| 20260505073044 | 61 | 235 | 1.7 | 3.5 | 0.00 | 0.00 | 0.00 | 64 | 1010.9 |
| 20260505072030 | 62 | 249 | 1.7 | 2.6 | 0.00 | 0.00 | 0.00 | 64 | 1010.9 |
| 20260505071028 | 62 | 244 | 2.6 | 3.5 | 0.00 | 0.00 | 0.00 | 65 | 1010.3 |
| 20260505070123 | 61 | 225 | 1.7 | 2.6 | 0.00 | 0.00 | 0.00 | 66 | 1009.9 |
| 20260505065104 | 60 | 225 | 0.0 | 0.9 | 0.00 | 0.00 | 0.00 | 66 | 1010.9 |
| 20260505064035 | 59 | 249 | 0.0 | 0.9 | 0.00 | 0.00 | 0.00 | 67 | 1010.9 |
| 20260505063051 | 59 | 273 | 0.9 | 1.7 | 0.00 | 0.00 | 0.00 | 68 | 1010.9 |
| 20260505062052 | 58 | 262 | 1.7 | 1.7 | 0.00 | 0.00 | 0.00 | 68 | 1010.9 |
| 20260505061104 | 58 | 269 | 1.7 | 2.6 | 0.00 | 0.00 | 0.00 | 70 | 1010.9 |
| 20260505060028 | 57 | 263 | 1.7 | 3.5 | 0.00 | 0.00 | 0.00 | 69 | 1010.9 |
| 20260505055026 | 58 | 245 | 1.7 | 1.7 | 0.00 | 0.00 | 0.00 | 68 | 1010.9 |
| 20260505054038 | 58 | 236 | 1.7 | 1.7 | 0.00 | 0.00 | 0.00 | 65 | 1010.4 |
| 20260505053023 | 57 | 349 | 0.9 | 2.6 | 0.00 | 0.00 | 0.00 | 63 | 1009.9 |
| 20260505052026 | 57 | 333 | 0.9 | 1.7 | 0.00 | 0.00 | 0.00 | 64 | 1010.9 |
| 20260505051048 | 57 | 240 | 0.0 | 0.9 | 0.00 | 0.00 | 0.00 | 65 | 1010.4 |
| 20260505040526 | 56 | 0.0 | 0.0 | 0.00 | 0.00 | 0.00 | 62 | 1009.9 | |
| 20260505035536 | 56 | 0.0 | 0.0 | 0.00 | 0.00 | 0.00 | 61 | 1009.9 | |
| 20260505034610 | 56 | 166 | 0.0 | 1.7 | 0.00 | 0.00 | 0.00 | 62 | 1009.9 |
| 20260505033556 | 56 | 90 | 0.0 | 0.9 | 0.00 | 0.00 | 0.00 | 61 | 1010.9 |
| 20260505032538 | 56 | 0.0 | 0.0 | 0.00 | 0.00 | 0.00 | 66 | 1010.9 | |
| 20260505031558 | 56 | 225 | 0.9 | 0.9 | 0.00 | 0.00 | 0.00 | 66 | 1010.9 |
| 20260505030553 | 56 | 225 | 0.0 | 0.0 | 0.00 | 0.00 | 0.00 | 66 | 1010.9 |
| 20260505025532 | 56 | 215 | 1.7 | 1.7 | 0.00 | 0.00 | 0.00 | 69 | 1010.9 |
| 20260505024529 | 58 | 270 | 0.9 | 0.9 | 0.00 | 0.00 | 0.00 | 58 | 1010.9 |
| 20260505023518 | 57 | 225 | 0.0 | 0.9 | 0.00 | 0.00 | 0.00 | 59 | 1010.9 |
| 20260505022529 | 57 | 225 | 0.0 | 0.9 | 0.00 | 0.00 | 0.00 | 57 | 1010.9 |
| 20260505021055 | 58 | 0.0 | 0.0 | 0.00 | 0.00 | 0.00 | 55 | 1011.6 | |
| 20260505015527 | 59 | 0.0 | 0.0 | 0.00 | 0.00 | 0.00 | 54 | 1012.0 | |
| 20260505014623 | 59 | 0.0 | 0.0 | 0.00 | 0.00 | 0.00 | 54 | 1012.0 | |
| 20260505013524 | 59 | 265 | 0.0 | 0.9 | 0.00 | 0.00 | 0.00 | 55 | 1012.0 |
| 20260505012528 | 59 | 0.0 | 0.0 | 0.00 | 0.00 | 0.00 | 55 | 1012.0 | |
| 20260505011549 | 59 | 225 | 0.0 | 0.9 | 0.00 | 0.00 | 0.00 | 55 | 1012.0 |
| 20260505010029 | 59 | 248 | 0.0 | 0.9 | 0.00 | 0.00 | 0.00 | 54 | 1012.0 |
| 20260505005038 | 60 | 244 | 0.9 | 1.7 | 0.00 | 0.00 | 0.00 | 54 | 1012.0 |
| 20260505004020 | 60 | 329 | 0.0 | 0.9 | 0.00 | 0.00 | 0.00 | 51 | 1012.5 |
| 20260505003042 | 60 | 220 | 0.9 | 1.7 | 0.00 | 0.00 | 0.00 | 54 | 1013.0 |
| 20260505002048 | 61 | 194 | 1.7 | 2.6 | 0.00 | 0.00 | 0.00 | 51 | 1012.0 |
| 20260505001023 | 60 | 67 | 2.6 | 2.6 | 0.00 | 0.00 | 0.00 | 52 | 1012.0 |
| 20260505000037 | 59 | 270 | 0.0 | 0.0 | 0.00 | 0.00 | 0.00 | 55 | 1012.0 |
| 20260504235054 | 59 | 180 | 0.9 | 1.7 | 0.00 | 0.00 | 0.00 | 56 | 1013.0 |
| 20260504234019 | 59 | 202 | 0.9 | 1.7 | 0.00 | 0.00 | 0.00 | 58 | 1013.0 |
| 20260504233023 | 59 | 225 | 0.0 | 0.0 | 0.00 | 0.00 | 0.00 | 57 | 1013.0 |
| 20260504232052 | 59 | 177 | 0.0 | 0.9 | 0.00 | 0.00 | 0.00 | 55 | 1013.0 |
| 20260504231016 | 60 | 225 | 0.0 | 0.9 | 0.00 | 0.00 | 0.00 | 52 | 1013.0 |
| 20260504225548 | 59 | 0.0 | 0.0 | 0.00 | 0.00 | 0.00 | 54 | 1013.0 | |
| 20260504224532 | 59 | 179 | 0.9 | 1.7 | 0.00 | 0.00 | 0.00 | 58 | 1013.0 |
| 20260504223518 | 60 | 319 | 0.9 | 2.6 | 0.00 | 0.00 | 0.00 | 51 | 1013.0 |
| 20260504222559 | 60 | 0.0 | 0.0 | 0.00 | 0.00 | 0.00 | 49 | 1013.6 | |
| 20260504221534 | 60 | 76 | 0.0 | 0.9 | 0.00 | 0.00 | 0.00 | 50 | 1014.0 |
| 20260504220524 | 60 | 90 | 0.0 | 0.9 | 0.00 | 0.00 | 0.00 | 49 | 1014.0 |
| 20260504215046 | 60 | 225 | 0.0 | 0.9 | 0.00 | 0.00 | 0.00 | 50 | 1014.0 |
| 20260504214039 | 61 | 0.0 | 0.0 | 0.00 | 0.00 | 0.00 | 46 | 1014.0 | |
| 20260504213024 | 61 | 79 | 0.0 | 1.7 | 0.00 | 0.00 | 0.00 | 46 | 1014.0 |
| 20260504212104 | 61 | 225 | 0.0 | 1.7 | 0.00 | 0.00 | 0.00 | 46 | 1014.0 |
| 20260504211034 | 62 | 0.0 | 0.0 | 0.00 | 0.00 | 0.00 | 45 | 1014.0 | |
| 20260504210023 | 62 | 0.0 | 0.0 | 0.00 | 0.00 | 0.00 | 44 | 1014.0 | |
| 20260504205046 | 62 | 67 | 0.0 | 0.9 | 0.00 | 0.00 | 0.00 | 44 | 1014.0 |
| 20260504204042 | 62 | 109 | 0.0 | 1.7 | 0.00 | 0.00 | 0.00 | 43 | 1014.0 |
| 20260504202523 | 63 | 95 | 0.0 | 0.0 | 0.00 | 0.00 | 0.00 | 42 | 1014.0 |
| 20260504201524 | 63 | 276 | 0.0 | 0.9 | 0.00 | 0.00 | 0.00 | 43 | 1014.0 |
| 20260504200543 | 64 | 55 | 0.0 | 0.9 | 0.00 | 0.00 | 0.00 | 39 | 1014.0 |
| 20260504195526 | 64 | 90 | 0.0 | 0.9 | 0.00 | 0.00 | 0.00 | 39 | 1014.0 |
| 20260504194520 | 65 | 45 | 0.0 | 0.9 | 0.00 | 0.00 | 0.00 | 39 | 1014.0 |
| 20260504193550 | 66 | 84 | 0.9 | 1.7 | 0.00 | 0.00 | 0.00 | 38 | 1014.0 |
| 20260504192023 | 66 | 84 | 0.9 | 0.9 | 0.00 | 0.00 | 0.00 | 37 | 1014.0 |
| 20260504191024 | 67 | 76 | 0.0 | 0.9 | 0.00 | 0.00 | 0.00 | 37 | 1014.0 |
| 20260504185519 | 68 | 90 | 0.0 | 0.9 | 0.00 | 0.00 | 0.00 | 36 | 1014.0 |
| 20260504184517 | 68 | 298 | 0.0 | 0.9 | 0.00 | 0.00 | 0.00 | 35 | 1014.0 |
| 20260504182532 | 69 | 288 | 0.9 | 1.7 | 0.00 | 0.00 | 0.00 | 34 | 1014.0 |
| 20260504181515 | 70 | 337 | 0.0 | 1.7 | 0.00 | 0.00 | 0.00 | 35 | 1014.0 |
| 20260504180610 | 70 | 315 | 0.0 | 1.7 | 0.00 | 0.00 | 0.00 | 35 | 1014.0 |
| 20260504175517 | 70 | 293 | 0.0 | 1.7 | 0.00 | 0.00 | 0.00 | 34 | 1014.0 |
| 20260504174542 | 70 | 249 | 1.7 | 2.6 | 0.00 | 0.00 | 0.00 | 34 | 1014.0 |
| 20260504173046 | 71 | 333 | 0.0 | 0.9 | 0.00 | 0.00 | 0.00 | 33 | 1014.0 |
| 20260504172016 | 71 | 273 | 0.9 | 2.6 | 0.00 | 0.00 | 0.00 | 33 | 1014.0 |
| 20260504171045 | 72 | 0 | 0.9 | 1.7 | 0.00 | 0.00 | 0.00 | 33 | 1014.0 |
| 20260504170524 | 72 | 330 | 0.9 | 1.7 | 0.00 | 0.00 | 0.00 | 33 | 1014.0 |